Location: Mohawk View
(42.7837°N, 73.7885°W)
Time: 16:45:44
(UTC+00:00)

Cosmos 1850 Rocket - Pass Details

Date: 17 June 2021
Orbit: 755 x 785 km, 74.0° (Epoch: 01 August)

Event Time Altitude Azimuth Distance (km) Brightness Sun altitude
Rises 02:05:33 0° 341° (NNW) 3,273 8.7 -13.1°
Reaches altitude 10° 02:07:58 10° 343° (NNW) 2,337 7.7 -13.3°
Maximum altitude 02:13:17 76° 69° (ENE) 800 4.0 -14.0°
Enters shadow 02:16:49 21° 153° (SSE) 1,663 5.1 -14.4°
